Time,TemperatureF,DewpointF,PressureIn,WindDirection,WindDirectionDegrees,WindSpeedMPH,WindSpeedGustMPH,Humidity,HourlyPrecipIn,Conditions,Clouds,dailyrainin,SoftwareType,DateUTC
2013-12-16 00:02:00,31.5,26.9,29.75,South,180,6.9,9.2,83,0.00,RA,,0.00,WeatherDisplay:10.37,2013-12-16 07:02:00,
2013-12-16 00:07:00,31.5,26.9,29.75,South,180,6.0,7.3,83,0.00,RA,,0.00,WeatherDisplay:10.37,2013-12-16 07:07:00,
2013-12-16 00:12:00,31.8,27.2,29.75,South,180,6.6,7.8,83,0.00,OVC,,0.00,WeatherDisplay:10.37,2013-12-16 07:12:00,
2013-12-16 00:17:00,31.8,27.2,29.75,SSE,158,6.1,9.2,83,0.00,OVC,,0.00,WeatherDisplay:10.37,2013-12-16 07:17:00,
2013-12-16 00:22:00,31.6,27.3,29.75,SSE,158,4.5,4.6,84,0.00,OVC,,0.00,WeatherDisplay:10.37,2013-12-16 07:22:00,
2013-12-16 00:27:00,31.8,27.5,29.75,SSE,158,3.9,4.7,84,0.00,OVC,,0.00,WeatherDisplay:10.37,2013-12-16 07:27:00,
2013-12-16 00:32:00,32.4,28.4,29.76,SSE,158,5.0,5.8,85,0.00,OVC,,0.00,WeatherDisplay:10.37,2013-12-16 07:32:00,
2013-12-16 00:37:00,33.3,29.3,29.76,South,180,5.2,5.8,85,0.00,OVC,,0.00,WeatherDisplay:10.37,2013-12-16 07:37:00,
2013-12-16 00:42:00,35.6,30.9,29.77,South,180,5.5,9.2,83,0.00,OVC,,0.00,WeatherDisplay:10.37,2013-12-16 07:42:00,
2013-12-16 00:47:00,36.5,31.5,29.77,South,180,7.7,10.4,82,0.00,OVC,,0.00,WeatherDisplay:10.37,2013-12-16 07:47:00,
2013-12-16 00:52:00,36.7,31.4,29.77,South,180,11.0,12.7,81,0.00,OVC,,0.00,WeatherDisplay:10.37,2013-12-16 07:52:00,
2013-12-16 00:57:00,36.9,31.3,29.78,South,180,9.3,16.1,80,0.00,OVC,,0.00,WeatherDisplay:10.37,2013-12-16 07:57:00,
2013-12-16 01:02:00,36.9,31.3,29.78,South,180,11.8,16.1,80,0.00,OVC,,0.00,WeatherDisplay:10.37,2013-12-16 08:02:00,
2013-12-16 01:07:00,36.5,30.9,29.79,South,180,11.9,15.0,80,0.00,OVC,,0.00,WeatherDisplay:10.37,2013-12-16 08:07:00,
2013-12-16 01:12:00,36.3,31.0,29.79,South,180,8.3,12.4,81,0.00,OVC,,0.00,WeatherDisplay:10.37,2013-12-16 08:12:00,
2013-12-16 01:17:00,35.8,30.8,29.80,South,180,11.3,12.4,82,0.00,OVC,,0.00,WeatherDisplay:10.37,2013-12-16 08:17:00,
2013-12-16 01:22:00,35.4,30.5,29.80,South,180,11.0,11.5,82,0.00,OVC,,0.00,WeatherDisplay:10.37,2013-12-16 08:22:00,
2013-12-16 01:27:00,35.1,30.5,29.82,South,180,7.9,10.4,83,0.00,OVC,,0.00,WeatherDisplay:10.37,2013-12-16 08:27:00,
2013-12-16 01:32:00,34.7,30.1,29.82,South,180,8.8,11.5,83,0.00,OVC,,0.00,WeatherDisplay:10.37,2013-12-16 08:32:00,
2013-12-16 01:37:00,34.3,29.7,29.82,South,180,7.0,10.4,83,0.00,OVC,,0.00,WeatherDisplay:10.37,2013-12-16 08:37:00,
2013-12-16 01:42:00,33.8,29.5,29.82,South,180,7.5,9.2,84,0.00,OVC,,0.00,WeatherDisplay:10.37,2013-12-16 08:42:00,
2013-12-16 01:47:00,33.8,29.5,29.82,South,180,5.5,9.2,84,0.00,OVC,,0.00,WeatherDisplay:10.37,2013-12-16 08:47:00,
2013-12-16 01:52:00,33.4,29.4,29.82,South,180,5.4,8.1,85,0.00,OVC,,0.00,WeatherDisplay:10.37,2013-12-16 08:52:00,
2013-12-16 01:57:00,33.3,29.3,29.83,South,180,7.4,10.4,85,0.00,OVC,,0.00,WeatherDisplay:10.37,2013-12-16 08:57:00,
2013-12-16 02:02:00,32.9,29.2,29.83,South,180,4.3,5.8,86,0.00,OVC,,0.00,WeatherDisplay:10.37,2013-12-16 09:02:00,
2013-12-16 02:07:00,32.7,29.3,29.84,South,180,5.1,8.8,87,0.00,OVC,,0.00,WeatherDisplay:10.37,2013-12-16 09:07:00,
2013-12-16 02:12:00,32.5,29.1,29.84,South,180,7.0,9.9,87,0.00,OVC,,0.00,WeatherDisplay:10.37,2013-12-16 09:12:00,
2013-12-16 02:17:00,32.4,29.0,29.84,South,180,7.8,9.4,87,0.00,OVC,,0.00,WeatherDisplay:10.37,2013-12-16 09:17:00,
2013-12-16 02:22:00,32.2,29.0,29.84,South,180,7.5,10.4,88,0.00,OVC,,0.00,WeatherDisplay:10.37,2013-12-16 09:22:00,
2013-12-16 02:27:00,32.0,28.8,29.84,South,180,4.8,6.9,88,0.00,OVC,,0.00,WeatherDisplay:10.37,2013-12-16 09:27:00,
2013-12-16 02:32:00,31.8,28.7,29.86,South,180,5.1,6.8,88,0.00,OVC,,0.00,WeatherDisplay:10.37,2013-12-16 09:32:00,
2013-12-16 02:37:00,31.5,28.4,29.86,South,180,4.6,5.8,88,0.00,OVC,,0.00,WeatherDisplay:10.37,2013-12-16 09:37:00,
2013-12-16 02:42:00,30.9,28.0,29.87,South,180,4.4,4.7,89,0.00,OVC,,0.00,WeatherDisplay:10.37,2013-12-16 09:42:00,
2013-12-16 02:48:00,30.6,27.7,29.87,South,180,3.4,4.6,89,0.00,OVC,,0.00,WeatherDisplay:10.37,2013-12-16 09:48:00,
2013-12-16 02:53:00,30.4,27.5,29.86,South,180,3.7,4.6,89,0.00,OVC,,0.00,WeatherDisplay:10.37,2013-12-16 09:53:00,
2013-12-16 02:58:00,30.0,27.4,29.86,South,180,4.7,5.8,90,0.00,OVC,,0.00,WeatherDisplay:10.37,2013-12-16 09:58:00,
2013-12-16 03:03:00,30.2,27.6,29.86,South,180,3.9,4.6,90,0.00,OVC,,0.00,WeatherDisplay:10.37,2013-12-16 10:03:00,
2013-12-16 03:08:00,30.2,27.6,29.86,South,180,4.1,4.6,90,0.00,OVC,,0.00,WeatherDisplay:10.37,2013-12-16 10:08:00,
2013-12-16 03:13:00,30.2,27.6,29.86,South,180,4.4,5.8,90,0.00,BKN,,0.00,WeatherDisplay:10.37,2013-12-16 10:13:00,
2013-12-16 03:18:00,30.4,27.5,29.87,South,180,4.9,6.9,89,0.00,BKN,,0.00,WeatherDisplay:10.37,2013-12-16 10:18:00,
2013-12-16 03:23:00,30.4,27.5,29.87,South,180,5.6,10.4,89,0.00,BKN,,0.00,WeatherDisplay:10.37,2013-12-16 10:23:00,
2013-12-16 03:28:00,30.6,27.5,29.87,South,180,5.4,6.9,88,0.00,BKN,,0.00,WeatherDisplay:10.37,2013-12-16 10:28:00,
2013-12-16 03:33:00,30.2,27.1,29.86,South,180,5.4,5.8,88,0.00,BKN,,0.00,WeatherDisplay:10.37,2013-12-16 10:33:00,
2013-12-16 03:38:00,30.2,27.1,29.86,South,180,4.7,5.8,88,0.00,BKN,,0.00,WeatherDisplay:10.37,2013-12-16 10:38:00,
2013-12-16 03:43:00,30.2,27.1,29.86,South,180,6.4,6.4,88,0.00,BKN,,0.00,WeatherDisplay:10.37,2013-12-16 10:43:00,
2013-12-16 03:48:00,30.0,26.9,29.86,South,180,5.4,6.8,88,0.00,BKN,,0.00,WeatherDisplay:10.37,2013-12-16 10:48:00,
2013-12-16 03:53:00,30.0,26.9,29.87,South,180,4.7,5.8,88,0.00,BKN,,0.00,WeatherDisplay:10.37,2013-12-16 10:53:00,
2013-12-16 03:58:00,29.8,26.7,29.87,South,180,7.3,8.8,88,0.00,BKN,,0.00,WeatherDisplay:10.37,2013-12-16 10:58:00,
2013-12-16 04:03:00,29.8,26.7,29.87,South,180,9.3,11.4,88,0.00,BKN,,0.00,WeatherDisplay:10.37,2013-12-16 11:03:00,
2013-12-16 04:08:00,29.8,26.7,29.86,South,180,7.1,8.1,88,0.00,BKN,,0.00,WeatherDisplay:10.37,2013-12-16 11:08:00,
2013-12-16 04:13:00,30.2,27.1,29.86,South,180,8.1,9.2,88,0.00,SCT,,0.00,WeatherDisplay:10.37,2013-12-16 11:13:00,
2013-12-16 04:18:00,30.2,27.1,29.87,South,180,7.0,8.1,88,0.00,SCT,,0.00,WeatherDisplay:10.37,2013-12-16 11:18:00,
2013-12-16 04:23:00,29.8,26.7,29.87,South,180,3.7,4.6,88,0.00,SCT,,0.00,WeatherDisplay:10.37,2013-12-16 11:23:00,
2013-12-16 04:28:00,29.8,26.7,29.87,South,180,3.7,3.7,88,0.00,SCT,,0.00,WeatherDisplay:10.37,2013-12-16 11:28:00,
2013-12-16 04:33:00,29.8,26.7,29.87,South,180,5.9,6.9,88,0.00,SCT,,0.00,WeatherDisplay:10.37,2013-12-16 11:33:00,
2013-12-16 04:38:00,29.8,26.7,29.87,South,180,5.8,6.9,88,0.00,SCT,,0.00,WeatherDisplay:10.37,2013-12-16 11:38:00,
2013-12-16 04:43:00,29.7,26.6,29.87,South,180,3.6,4.6,88,0.00,SCT,,0.00,WeatherDisplay:10.37,2013-12-16 11:43:00,
2013-12-16 04:48:00,29.7,26.6,29.87,South,180,4.6,5.8,88,0.00,SCT,,0.00,WeatherDisplay:10.37,2013-12-16 11:48:00,
2013-12-16 04:53:00,29.5,26.4,29.86,South,180,3.5,4.6,88,0.00,SCT,,0.00,WeatherDisplay:10.37,2013-12-16 11:53:00,
2013-12-16 04:58:00,29.3,26.2,29.86,South,180,6.0,8.1,88,0.00,SCT,,0.00,WeatherDisplay:10.37,2013-12-16 11:58:00,
2013-12-16 05:03:00,29.1,26.0,29.86,South,180,6.6,6.9,88,0.00,SCT,,0.00,WeatherDisplay:10.37,2013-12-16 12:03:00,
2013-12-16 05:08:00,29.1,26.0,29.86,South,180,5.9,8.3,88,0.00,SCT,,0.00,WeatherDisplay:10.37,2013-12-16 12:08:00,
2013-12-16 05:13:00,29.3,25.9,29.86,South,180,6.2,8.3,87,0.00,BKN,,0.00,WeatherDisplay:10.37,2013-12-16 12:13:00,
2013-12-16 05:18:00,29.7,26.3,29.87,South,180,6.0,6.3,87,0.00,BKN,,0.00,WeatherDisplay:10.37,2013-12-16 12:18:00,
2013-12-16 05:23:00,30.0,26.3,29.87,South,180,6.6,6.9,86,0.00,BKN,,0.00,WeatherDisplay:10.37,2013-12-16 12:23:00,
2013-12-16 05:28:00,30.4,26.4,29.86,South,180,6.1,6.9,85,0.00,BKN,,0.00,WeatherDisplay:10.37,2013-12-16 12:28:00,
2013-12-16 05:33:00,30.6,26.6,29.86,South,180,5.8,6.9,85,0.00,BKN,,0.00,WeatherDisplay:10.37,2013-12-16 12:33:00,
2013-12-16 05:38:00,31.1,26.8,29.86,South,180,7.6,10.4,84,0.00,BKN,,0.00,WeatherDisplay:10.37,2013-12-16 12:38:00,
2013-12-16 05:43:00,31.1,26.8,29.87,South,180,6.1,6.9,84,0.00,BKN,,0.00,WeatherDisplay:10.37,2013-12-16 12:43:00,
2013-12-16 05:48:00,31.1,26.8,29.87,South,180,6.8,10.4,84,0.00,BKN,,0.00,WeatherDisplay:10.37,2013-12-16 12:48:00,
2013-12-16 05:53:00,31.1,26.8,29.88,South,180,8.6,10.4,84,0.00,BKN,,0.00,WeatherDisplay:10.37,2013-12-16 12:53:00,
2013-12-16 05:58:00,31.1,26.8,29.88,South,180,7.2,8.1,84,0.00,BKN,,0.00,WeatherDisplay:10.37,2013-12-16 12:58:00,
2013-12-16 06:03:00,31.5,27.2,29.89,South,180,7.8,10.4,84,0.00,BKN,,0.00,WeatherDisplay:10.37,2013-12-16 13:03:00,
2013-12-16 06:08:00,31.6,27.0,29.89,South,180,8.2,9.2,83,0.00,BKN,,0.00,WeatherDisplay:10.37,2013-12-16 13:08:00,
2013-12-16 06:13:00,31.8,27.2,29.89,South,180,8.8,11.4,83,0.00,BKN,,0.00,WeatherDisplay:10.37,2013-12-16 13:13:00,
2013-12-16 06:18:00,31.8,27.2,29.89,South,180,9.2,10.4,83,0.00,BKN,,0.00,WeatherDisplay:10.37,2013-12-16 13:18:00,
2013-12-16 06:24:00,31.8,27.2,29.89,South,180,7.0,8.1,83,0.00,BKN,,0.00,WeatherDisplay:10.37,2013-12-16 13:24:00,
2013-12-16 06:29:00,32.0,27.1,29.89,South,180,7.3,9.2,82,0.00,BKN,,0.00,WeatherDisplay:10.37,2013-12-16 13:29:00,
2013-12-16 06:34:00,32.0,27.1,29.89,South,180,9.4,10.4,82,0.00,BKN,,0.00,WeatherDisplay:10.37,2013-12-16 13:34:00,
2013-12-16 06:39:00,32.0,27.1,29.89,South,180,8.1,9.2,82,0.00,BKN,,0.00,WeatherDisplay:10.37,2013-12-16 13:39:00,
2013-12-16 06:44:00,32.0,27.1,29.90,South,180,9.7,11.5,82,0.00,BKN,,0.00,WeatherDisplay:10.37,2013-12-16 13:44:00,
2013-12-16 06:49:00,32.0,27.1,29.90,South,180,7.4,9.2,82,0.00,BKN,,0.00,WeatherDisplay:10.37,2013-12-16 13:49:00,
2013-12-16 06:54:00,31.8,26.9,29.89,South,180,6.9,10.4,82,0.00,BKN,,0.00,WeatherDisplay:10.37,2013-12-16 13:54:00,
2013-12-16 06:59:00,31.8,26.9,29.89,South,180,7.8,10.4,82,0.00,BKN,,0.00,WeatherDisplay:10.37,2013-12-16 13:59:00,
2013-12-16 07:04:00,31.8,26.9,29.89,South,180,8.1,10.4,82,0.00,BKN,,0.00,WeatherDisplay:10.37,2013-12-16 14:04:00,
2013-12-16 07:09:00,31.8,26.9,29.89,South,180,7.2,9.2,82,0.00,BKN,,0.00,WeatherDisplay:10.37,2013-12-16 14:09:00,
2013-12-16 07:14:00,32.0,26.8,29.89,South,180,7.3,10.4,81,0.00,OVC,,0.00,WeatherDisplay:10.37,2013-12-16 14:14:00,
2013-12-16 07:19:00,32.0,26.8,29.90,South,180,8.2,11.5,81,0.00,OVC,,0.00,WeatherDisplay:10.37,2013-12-16 14:19:00,
2013-12-16 07:24:00,32.0,26.8,29.90,South,180,7.2,9.2,81,0.00,OVC,,0.00,WeatherDisplay:10.37,2013-12-16 14:24:00,
2013-12-16 07:29:00,31.8,26.6,29.90,South,180,8.7,10.4,81,0.00,OVC,,0.00,WeatherDisplay:10.37,2013-12-16 14:29:00,
2013-12-16 07:34:00,31.6,26.7,29.90,South,180,6.7,8.1,82,0.00,OVC,,0.00,WeatherDisplay:10.37,2013-12-16 14:34:00,
2013-12-16 07:39:00,31.8,26.9,29.90,South,180,7.5,8.1,82,0.00,OVC,,0.00,WeatherDisplay:10.37,2013-12-16 14:39:00,
2013-12-16 07:44:00,31.8,26.9,29.91,South,180,6.4,9.2,82,0.00,OVC,,0.00,WeatherDisplay:10.37,2013-12-16 14:44:00,
2013-12-16 07:49:00,31.8,26.9,29.91,South,180,6.5,6.9,82,0.00,OVC,,0.00,WeatherDisplay:10.37,2013-12-16 14:49:00,
2013-12-16 07:54:00,31.8,26.9,29.92,South,180,6.3,7.3,82,0.00,OVC,,0.00,WeatherDisplay:10.37,2013-12-16 14:54:00,
2013-12-16 07:59:00,31.6,26.7,29.92,South,180,8.0,11.4,82,0.00,OVC,,0.00,WeatherDisplay:10.37,2013-12-16 14:59:00,
2013-12-16 08:04:00,31.6,26.7,29.92,South,180,6.6,6.9,82,0.00,OVC,,0.00,WeatherDisplay:10.37,2013-12-16 15:04:00,
2013-12-16 08:09:00,31.6,26.7,29.91,South,180,7.0,8.1,82,0.00,OVC,,0.00,WeatherDisplay:10.37,2013-12-16 15:09:00,
2013-12-16 08:14:00,31.8,26.9,29.91,South,180,6.5,8.1,82,0.00,OVC,,0.00,WeatherDisplay:10.37,2013-12-16 15:14:00,
2013-12-16 08:19:00,32.0,27.1,29.93,South,180,6.1,8.8,82,0.00,OVC,,0.00,WeatherDisplay:10.37,2013-12-16 15:19:00,
2013-12-16 08:24:00,32.0,27.1,29.93,South,180,6.2,6.9,82,0.00,OVC,,0.00,WeatherDisplay:10.37,2013-12-16 15:24:00,
2013-12-16 08:29:00,32.0,27.1,29.92,South,180,7.3,11.4,82,0.00,OVC,,0.00,WeatherDisplay:10.37,2013-12-16 15:29:00,
2013-12-16 08:34:00,32.2,27.0,29.92,South,180,6.3,6.9,81,0.00,OVC,,0.00,WeatherDisplay:10.37,2013-12-16 15:34:00,
2013-12-16 08:39:00,32.4,27.2,29.92,South,180,6.5,6.9,81,0.00,OVC,,0.00,WeatherDisplay:10.37,2013-12-16 15:39:00,
2013-12-16 08:44:00,32.4,27.2,29.93,South,180,5.8,9.2,81,0.00,OVC,,0.00,WeatherDisplay:10.37,2013-12-16 15:44:00,
2013-12-16 08:49:00,32.5,27.3,29.93,South,180,5.7,9.4,81,0.00,OVC,,0.00,WeatherDisplay:10.37,2013-12-16 15:49:00,
2013-12-16 08:54:00,32.5,27.3,29.94,South,180,6.7,8.1,81,0.00,OVC,,0.00,WeatherDisplay:10.37,2013-12-16 15:54:00,
2013-12-16 08:59:00,32.5,27.3,29.94,South,180,5.7,8.1,81,0.00,OVC,,0.00,WeatherDisplay:10.37,2013-12-16 15:59:00,
2013-12-16 09:04:00,32.7,27.5,29.94,South,180,9.3,10.9,81,0.00,OVC,,0.00,WeatherDisplay:10.37,2013-12-16 16:04:00,
2013-12-16 09:09:00,32.9,27.4,29.93,South,180,6.2,7.3,80,0.00,OVC,,0.00,WeatherDisplay:10.37,2013-12-16 16:09:00,
2013-12-16 09:14:00,33.1,27.3,29.93,South,180,8.4,8.4,79,0.00,OVC,,0.00,WeatherDisplay:10.37,2013-12-16 16:14:00,
2013-12-16 09:19:00,33.1,27.3,29.94,South,180,9.4,9.4,79,0.00,OVC,,0.00,WeatherDisplay:10.37,2013-12-16 16:19:00,
2013-12-16 09:24:00,33.3,27.5,29.94,South,180,6.5,6.9,79,0.00,OVC,,0.00,WeatherDisplay:10.37,2013-12-16 16:24:00,
2013-12-16 09:29:00,33.3,27.5,29.94,South,180,7.1,8.1,79,0.00,OVC,,0.00,WeatherDisplay:10.37,2013-12-16 16:29:00,
2013-12-16 09:34:00,33.4,27.6,29.94,South,180,6.0,9.2,79,0.00,OVC,,0.00,WeatherDisplay:10.37,2013-12-16 16:34:00,
2013-12-16 09:39:00,33.6,27.5,29.94,South,180,7.3,9.2,78,0.00,OVC,,0.00,WeatherDisplay:10.37,2013-12-16 16:39:00,
2013-12-16 09:44:00,34.0,27.9,29.95,South,180,8.8,8.8,78,0.00,OVC,,0.00,WeatherDisplay:10.37,2013-12-16 16:44:00,
2013-12-16 09:49:00,34.5,28.0,29.95,South,180,7.5,10.4,77,0.00,OVC,,0.00,WeatherDisplay:10.37,2013-12-16 16:49:00,
2013-12-16 09:54:00,34.2,27.7,29.95,South,180,9.6,10.4,77,0.00,OVC,,0.00,WeatherDisplay:10.37,2013-12-16 16:54:00,
2013-12-16 09:59:00,34.2,27.7,29.95,South,180,9.0,9.2,77,0.00,OVC,,0.00,WeatherDisplay:10.37,2013-12-16 16:59:00,
2013-12-16 10:04:00,34.2,27.7,29.94,South,180,10.0,10.4,77,0.00,OVC,,0.00,WeatherDisplay:10.37,2013-12-16 17:04:00,
2013-12-16 10:09:00,34.2,27.7,29.94,SSE,158,6.6,8.1,77,0.00,OVC,,0.00,WeatherDisplay:10.37,2013-12-16 17:09:00,
2013-12-16 10:14:00,34.0,27.9,29.94,SSE,158,9.5,10.4,78,0.00,OVC,,0.00,WeatherDisplay:10.37,2013-12-16 17:14:00,
2013-12-16 10:19:00,34.0,27.9,29.95,SSE,158,7.8,9.4,78,0.00,OVC,,0.00,WeatherDisplay:10.37,2013-12-16 17:19:00,
2013-12-16 10:24:00,34.0,27.5,29.95,South,180,9.0,11.5,77,0.00,OVC,,0.00,WeatherDisplay:10.37,2013-12-16 17:24:00,
2013-12-16 10:29:00,33.8,27.7,29.95,SSE,158,8.5,12.7,78,0.00,OVC,,0.00,WeatherDisplay:10.37,2013-12-16 17:29:00,
2013-12-16 10:34:00,33.8,27.7,29.95,SSE,158,8.3,8.3,78,0.00,OVC,,0.00,WeatherDisplay:10.37,2013-12-16 17:34:00,
2013-12-16 10:39:00,33.8,27.7,29.94,ESE,112,10.6,11.5,78,0.00,OVC,,0.00,WeatherDisplay:10.37,2013-12-16 17:39:00,
2013-12-16 10:44:00,33.8,27.7,29.94,SE,135,9.5,10.9,78,0.00,OVC,,0.00,WeatherDisplay:10.37,2013-12-16 17:44:00,
2013-12-16 10:49:00,33.8,27.7,29.94,SSE,158,9.1,11.4,78,0.00,OVC,,0.00,WeatherDisplay:10.37,2013-12-16 17:49:00,
2013-12-16 10:54:00,33.8,28.0,29.94,SSE,158,11.5,15.0,79,0.00,OVC,,0.00,WeatherDisplay:10.37,2013-12-16 17:54:00,
2013-12-16 10:59:00,33.8,28.0,29.94,SE,135,12.0,13.8,79,0.00,OVC,,0.00,WeatherDisplay:10.37,2013-12-16 17:59:00,
2013-12-16 11:04:00,33.8,28.0,29.94,SE,135,10.1,12.7,79,0.00,OVC,,0.00,WeatherDisplay:10.37,2013-12-16 18:04:00,
2013-12-16 11:09:00,33.8,28.0,29.94,SE,135,9.5,12.7,79,0.00,OVC,,0.00,WeatherDisplay:10.37,2013-12-16 18:09:00,
2013-12-16 11:14:00,34.0,28.2,29.94,SSE,158,13.0,16.1,79,0.00,OVC,,0.00,WeatherDisplay:10.37,2013-12-16 18:14:00,
2013-12-16 11:19:00,33.8,28.3,29.94,SSE,158,9.0,12.7,80,0.00,OVC,,0.00,WeatherDisplay:10.37,2013-12-16 18:19:00,
2013-12-16 11:24:00,33.8,28.6,29.94,SSE,158,9.3,11.5,81,0.00,OVC,,0.00,WeatherDisplay:10.37,2013-12-16 18:24:00,
2013-12-16 11:29:00,33.6,28.4,29.94,ESE,112,11.4,15.5,81,0.00,OVC,,0.00,WeatherDisplay:10.37,2013-12-16 18:29:00,
2013-12-16 11:34:00,33.6,28.4,29.94,SSE,158,9.4,9.4,81,0.00,OVC,,0.00,WeatherDisplay:10.37,2013-12-16 18:34:00,
2013-12-16 11:39:00,33.8,28.6,29.94,SE,135,9.7,12.7,81,0.00,OVC,,0.00,WeatherDisplay:10.37,2013-12-16 18:39:00,
2013-12-16 11:45:00,33.8,28.6,29.94,SE,135,14.0,15.0,81,0.00,OVC,,0.00,WeatherDisplay:10.37,2013-12-16 18:45:00,
2013-12-16 11:50:00,33.8,28.6,29.94,South,180,15.0,15.0,81,0.00,OVC,,0.00,WeatherDisplay:10.37,2013-12-16 18:50:00,
2013-12-16 11:55:00,34.0,28.8,29.94,SSE,158,11.5,15.0,81,0.00,OVC,,0.00,WeatherDisplay:10.37,2013-12-16 18:55:00,
2013-12-16 12:00:00,34.0,28.8,29.94,SSE,158,12.9,15.0,81,0.00,OVC,,0.00,WeatherDisplay:10.37,2013-12-16 19:00:00,
2013-12-16 12:05:00,34.0,28.8,29.94,SSE,158,9.4,9.4,81,0.00,OVC,,0.00,WeatherDisplay:10.37,2013-12-16 19:05:00,
2013-12-16 12:10:00,34.0,28.8,29.94,SSE,158,9.9,13.8,81,0.00,OVC,,0.00,WeatherDisplay:10.37,2013-12-16 19:10:00,
2013-12-16 12:15:00,34.2,28.7,29.94,SSE,158,13.4,15.0,80,0.00,OVC,,0.00,WeatherDisplay:10.37,2013-12-16 19:15:00,
2013-12-16 12:20:00,34.3,28.8,29.94,SE,135,10.3,12.7,80,0.00,OVC,,0.00,WeatherDisplay:10.37,2013-12-16 19:20:00,
2013-12-16 12:25:00,34.3,28.8,29.94,SE,135,12.2,16.1,80,0.00,OVC,,0.00,WeatherDisplay:10.37,2013-12-16 19:25:00,
2013-12-16 12:30:00,34.3,28.8,29.94,SSE,158,10.0,12.4,80,0.00,OVC,,0.00,WeatherDisplay:10.37,2013-12-16 19:30:00,
2013-12-16 12:35:00,34.3,28.8,29.94,SSE,158,10.0,12.4,80,0.00,OVC,,0.00,WeatherDisplay:10.37,2013-12-16 19:35:00,
2013-12-16 12:40:00,34.5,29.0,29.94,SSE,158,12.1,17.3,80,0.00,OVC,,0.00,WeatherDisplay:10.37,2013-12-16 19:40:00,
2013-12-16 12:45:00,34.5,29.0,29.94,SE,135,9.5,12.7,80,0.00,OVC,,0.00,WeatherDisplay:10.37,2013-12-16 19:45:00,
2013-12-16 12:50:00,34.5,29.0,29.94,South,180,11.6,15.0,80,0.00,OVC,,0.00,WeatherDisplay:10.37,2013-12-16 19:50:00,
2013-12-16 12:55:00,34.5,29.0,29.94,South,180,9.9,10.4,80,0.00,OVC,,0.00,WeatherDisplay:10.37,2013-12-16 19:55:00,
2013-12-16 13:00:00,34.5,28.7,29.94,South,180,11.3,13.5,79,0.00,OVC,,0.00,WeatherDisplay:10.37,2013-12-16 20:00:00,
2013-12-16 13:05:00,34.7,28.2,29.95,WSW,248,7.8,8.1,77,0.00,OVC,,0.00,WeatherDisplay:10.37,2013-12-16 20:05:00,
2013-12-16 13:10:00,34.9,28.4,29.95,SW,225,9.2,11.4,77,0.00,OVC,,0.00,WeatherDisplay:10.37,2013-12-16 20:10:00,
2013-12-16 13:15:00,34.9,28.4,29.95,SW,225,10.5,11.4,77,0.00,OVC,,0.00,WeatherDisplay:10.37,2013-12-16 20:15:00,
2013-12-16 13:20:00,34.5,28.7,29.96,WSW,248,10.3,12.7,79,0.00,OVC,,0.00,WeatherDisplay:10.37,2013-12-16 20:20:00,
2013-12-16 13:25:00,34.2,28.7,29.96,SW,225,9.1,13.8,80,0.00,OVC,,0.00,WeatherDisplay:10.37,2013-12-16 20:25:00,
2013-12-16 13:30:00,34.2,28.7,29.96,WNW,292,7.9,10.4,80,0.00,OVC,,0.00,WeatherDisplay:10.37,2013-12-16 20:30:00,
2013-12-16 13:35:00,34.2,29.0,29.96,West,270,6.3,6.9,81,0.00,OVC,,0.00,WeatherDisplay:10.37,2013-12-16 20:35:00,
2013-12-16 13:40:00,34.2,29.0,29.95,WSW,248,8.6,11.5,81,0.00,OVC,,0.00,WeatherDisplay:10.37,2013-12-16 20:40:00,
2013-12-16 13:45:00,33.8,28.6,29.95,SW,225,7.9,11.9,81,0.00,OVC,,0.00,WeatherDisplay:10.37,2013-12-16 20:45:00,
2013-12-16 13:50:00,33.8,28.6,29.95,SW,225,9.6,14.5,81,0.00,OVC,,0.00,WeatherDisplay:10.37,2013-12-16 20:50:00,
2013-12-16 13:55:00,33.8,28.6,29.95,WSW,248,7.3,9.2,81,0.00,OVC,,0.00,WeatherDisplay:10.37,2013-12-16 20:55:00,
2013-12-16 14:00:00,33.6,28.4,29.95,SW,225,9.4,12.4,81,0.00,OVC,,0.00,WeatherDisplay:10.37,2013-12-16 21:00:00,
2013-12-16 14:05:00,33.6,28.7,29.94,SW,225,8.0,10.4,82,0.00,OVC,,0.00,WeatherDisplay:10.37,2013-12-16 21:05:00,
2013-12-16 14:10:00,33.4,28.5,29.94,WSW,248,10.0,10.4,82,0.00,OVC,,0.00,WeatherDisplay:10.37,2013-12-16 21:10:00,
2013-12-16 14:15:00,33.3,28.7,29.95,WSW,248,8.1,9.2,83,0.00,OVC,,0.00,WeatherDisplay:10.37,2013-12-16 21:15:00,
2013-12-16 14:20:00,33.3,28.7,29.95,SW,225,10.4,11.5,83,0.00,OVC,,0.00,WeatherDisplay:10.37,2013-12-16 21:20:00,
2013-12-16 14:26:00,33.1,28.8,29.95,WSW,248,12.6,16.1,84,0.00,OVC,,0.00,WeatherDisplay:10.37,2013-12-16 21:26:00,
2013-12-16 14:31:00,33.1,28.8,29.95,SW,225,9.1,12.4,84,0.00,OVC,,0.00,WeatherDisplay:10.37,2013-12-16 21:31:00,
2013-12-16 14:36:00,33.1,28.8,29.95,SW,225,11.4,12.7,84,0.00,OVC,,0.00,WeatherDisplay:10.37,2013-12-16 21:36:00,
2013-12-16 14:41:00,32.9,28.6,29.96,WSW,248,13.9,16.1,84,0.00,OVC,,0.00,WeatherDisplay:10.37,2013-12-16 21:41:00,
2013-12-16 14:46:00,32.9,28.6,29.96,WSW,248,11.5,14.5,84,0.00,OVC,,0.00,WeatherDisplay:10.37,2013-12-16 21:46:00,
2013-12-16 14:51:00,32.9,28.6,29.96,SW,225,9.8,16.1,84,0.00,OVC,,0.00,WeatherDisplay:10.37,2013-12-16 21:51:00,
2013-12-16 14:56:00,32.9,28.6,29.97,SSE,158,11.8,16.1,84,0.00,OVC,,0.00,WeatherDisplay:10.37,2013-12-16 21:56:00,
2013-12-16 15:01:00,32.9,28.6,29.97,South,180,8.0,13.8,84,0.00,OVC,,0.00,WeatherDisplay:10.37,2013-12-16 22:01:00,
2013-12-16 15:06:00,32.9,28.6,29.97,ESE,112,12.8,12.8,84,0.00,OVC,,0.00,WeatherDisplay:10.37,2013-12-16 22:06:00,
2013-12-16 15:11:00,32.9,28.6,29.97,SSE,158,13.2,16.1,84,0.00,OVC,,0.00,WeatherDisplay:10.37,2013-12-16 22:11:00,
2013-12-16 15:16:00,32.9,28.6,29.97,SSE,158,9.4,9.4,84,0.00,OVC,,0.00,WeatherDisplay:10.37,2013-12-16 22:16:00,
2013-12-16 15:21:00,32.7,28.7,29.97,SSE,158,8.9,11.5,85,0.00,OVC,,0.00,WeatherDisplay:10.37,2013-12-16 22:21:00,
2013-12-16 15:26:00,32.4,28.7,29.97,South,180,10.0,15.5,86,0.00,OVC,,0.00,WeatherDisplay:10.37,2013-12-16 22:26:00,
2013-12-16 15:31:00,32.0,28.3,29.97,South,180,8.5,10.4,86,0.00,OVC,,0.00,WeatherDisplay:10.37,2013-12-16 22:31:00,
2013-12-16 15:36:00,32.0,28.3,29.97,SE,135,8.4,14.0,86,0.00,OVC,,0.00,WeatherDisplay:10.37,2013-12-16 22:36:00,
2013-12-16 15:41:00,31.6,28.2,29.98,South,180,8.9,9.2,87,0.00,OVC,,0.00,WeatherDisplay:10.37,2013-12-16 22:41:00,
2013-12-16 15:46:00,31.5,28.1,29.98,South,180,10.3,10.4,87,0.00,OVC,,0.00,WeatherDisplay:10.37,2013-12-16 22:46:00,
2013-12-16 15:51:00,31.5,28.1,29.98,South,180,10.9,11.9,87,0.00,OVC,,0.00,WeatherDisplay:10.37,2013-12-16 22:51:00,
2013-12-16 15:56:00,31.5,28.1,29.99,South,180,11.7,15.0,87,0.00,OVC,,0.00,WeatherDisplay:10.37,2013-12-16 22:56:00,
2013-12-16 16:01:00,31.5,28.1,29.99,SSE,158,9.8,11.5,87,0.00,OVC,,0.00,WeatherDisplay:10.37,2013-12-16 23:01:00,
2013-12-16 16:06:00,31.5,28.1,29.99,South,180,7.5,8.1,87,0.00,OVC,,0.00,WeatherDisplay:10.37,2013-12-16 23:06:00,
2013-12-16 16:11:00,31.5,28.1,29.99,SSE,158,8.3,11.5,87,0.00,OVC,,0.00,WeatherDisplay:10.37,2013-12-16 23:11:00,
2013-12-16 16:16:00,31.5,28.1,30.00,SSE,158,8.1,9.2,87,0.00,OVC,,0.00,WeatherDisplay:10.37,2013-12-16 23:16:00,
2013-12-16 16:21:00,31.5,28.1,30.00,South,180,6.8,9.2,87,0.00,OVC,,0.00,WeatherDisplay:10.37,2013-12-16 23:21:00,
2013-12-16 16:26:00,31.5,28.1,30.00,SSE,158,9.1,11.5,87,0.00,OVC,,0.00,WeatherDisplay:10.37,2013-12-16 23:26:00,
2013-12-16 16:31:00,31.3,27.9,30.01,South,180,7.8,10.4,87,0.00,OVC,,0.00,WeatherDisplay:10.37,2013-12-16 23:31:00,
2013-12-16 16:36:00,31.1,27.7,30.01,SSE,158,8.5,12.7,87,0.00,OVC,,0.00,WeatherDisplay:10.37,2013-12-16 23:36:00,
2013-12-16 16:41:00,30.9,27.5,30.00,ESE,112,7.8,10.4,87,0.00,OVC,,0.00,WeatherDisplay:10.37,2013-12-16 23:41:00,
2013-12-16 16:46:00,30.7,27.3,30.00,SSE,158,7.4,8.8,87,0.00,OVC,,0.00,WeatherDisplay:10.37,2013-12-16 23:46:00,
2013-12-16 16:51:00,30.6,27.2,30.00,SSE,158,8.3,10.4,87,0.00,OVC,,0.00,WeatherDisplay:10.37,2013-12-16 23:51:00,
2013-12-16 16:56:00,30.4,27.0,29.99,South,180,8.9,11.5,87,0.00,OVC,,0.00,WeatherDisplay:10.37,2013-12-16 23:56:00,
2013-12-16 17:01:00,30.2,26.8,29.99,South,180,8.7,9.2,87,0.00,OVC,,0.00,WeatherDisplay:10.37,2013-12-17 00:01:00,
2013-12-16 17:06:00,30.4,27.0,29.99,SE,135,11.1,12.7,87,0.00,OVC,,0.00,WeatherDisplay:10.37,2013-12-17 00:06:00,
2013-12-16 17:11:00,30.4,27.0,29.99,South,180,11.3,11.5,87,0.00,OVC,,0.00,WeatherDisplay:10.37,2013-12-17 00:11:00,
2013-12-16 17:17:00,30.2,26.8,29.98,South,180,13.5,13.8,87,0.00,OVC,,0.00,WeatherDisplay:10.37,2013-12-17 00:17:00,
2013-12-16 17:22:00,30.2,26.8,29.98,South,180,12.9,13.8,87,0.00,OVC,,0.00,WeatherDisplay:10.37,2013-12-17 00:22:00,
2013-12-16 17:27:00,29.8,26.4,29.98,South,180,8.7,10.4,87,0.00,OVC,,0.00,WeatherDisplay:10.37,2013-12-17 00:27:00,
2013-12-16 17:32:00,29.8,26.4,29.98,South,180,8.8,11.5,87,0.00,OVC,,0.00,WeatherDisplay:10.37,2013-12-17 00:32:00,
2013-12-16 17:37:00,29.8,26.4,29.98,South,180,7.8,9.2,87,0.00,OVC,,0.00,WeatherDisplay:10.37,2013-12-17 00:37:00,
2013-12-16 17:42:00,29.8,26.4,29.98,South,180,11.4,11.5,87,0.00,OVC,,0.00,WeatherDisplay:10.37,2013-12-17 00:42:00,
2013-12-16 17:47:00,30.0,26.9,29.98,South,180,10.5,11.5,88,0.00,OVC,,0.00,WeatherDisplay:10.37,2013-12-17 00:47:00,
2013-12-16 17:52:00,30.0,26.9,29.98,South,180,13.0,14.5,88,0.00,OVC,,0.00,WeatherDisplay:10.37,2013-12-17 00:52:00,
2013-12-16 17:57:00,30.2,27.1,29.98,South,180,11.7,16.1,88,0.00,OVC,,0.00,WeatherDisplay:10.37,2013-12-17 00:57:00,
2013-12-16 18:02:00,30.2,27.1,29.98,South,180,12.4,15.0,88,0.00,OVC,,0.00,WeatherDisplay:10.37,2013-12-17 01:02:00,
2013-12-16 18:07:00,30.2,27.1,29.98,South,180,9.3,11.5,88,0.00,OVC,,0.00,WeatherDisplay:10.37,2013-12-17 01:07:00,
2013-12-16 18:12:00,30.2,27.1,29.98,South,180,6.7,8.3,88,0.00,OVC,,0.00,WeatherDisplay:10.37,2013-12-17 01:12:00,
2013-12-16 18:17:00,30.0,26.9,29.99,South,180,5.0,5.8,88,0.00,OVC,,0.00,WeatherDisplay:10.37,2013-12-17 01:17:00,
2013-12-16 18:22:00,30.0,26.9,29.99,South,180,6.3,6.9,88,0.00,OVC,,0.00,WeatherDisplay:10.37,2013-12-17 01:22:00,
2013-12-16 18:25:00,30.0,26.9,29.99,South,180,5.5,7.3,88,0.00,OVC,,0.00,WeatherDisplay:10.37,2013-12-17 01:25:00,
2013-12-16 18:30:00,30.2,27.1,30.00,South,180,6.5,8.1,88,0.00,OVC,,0.00,WeatherDisplay:10.37,2013-12-17 01:30:00,
2013-12-16 18:35:00,30.2,27.1,30.00,South,180,4.9,9.2,88,0.00,OVC,,0.00,WeatherDisplay:10.37,2013-12-17 01:35:00,
2013-12-16 18:40:00,30.2,27.1,30.00,South,180,5.8,6.9,88,0.00,OVC,,0.00,WeatherDisplay:10.37,2013-12-17 01:40:00,
2013-12-16 18:45:00,30.0,26.9,30.00,South,180,6.3,7.3,88,0.00,OVC,,0.00,WeatherDisplay:10.37,2013-12-17 01:45:00,
2013-12-16 18:50:00,30.0,27.2,30.00,South,180,9.0,11.5,89,0.00,OVC,,0.00,WeatherDisplay:10.37,2013-12-17 01:50:00,
2013-12-16 18:55:00,30.2,27.3,30.00,South,180,7.5,10.4,89,0.00,OVC,,0.00,WeatherDisplay:10.37,2013-12-17 01:55:00,
2013-12-16 19:00:00,30.2,27.3,30.00,South,180,5.6,8.1,89,0.00,OVC,,0.00,WeatherDisplay:10.37,2013-12-17 02:00:00,
2013-12-16 19:05:00,30.2,27.3,30.00,South,180,7.0,8.3,89,0.00,OVC,,0.00,WeatherDisplay:10.37,2013-12-17 02:05:00,
2013-12-16 19:10:00,30.2,27.3,30.00,South,180,5.7,8.1,89,0.00,OVC,,0.00,WeatherDisplay:10.37,2013-12-17 02:10:00,
2013-12-16 19:15:00,30.2,27.3,30.00,South,180,5.8,5.8,89,0.00,OVC,,0.00,WeatherDisplay:10.37,2013-12-17 02:15:00,
2013-12-16 19:20:00,29.8,27.5,30.01,South,180,5.3,9.2,91,0.00,OVC,,0.00,WeatherDisplay:10.37,2013-12-17 02:20:00,
2013-12-16 19:25:00,29.8,27.5,30.01,South,180,9.6,10.4,91,0.00,OVC,,0.00,WeatherDisplay:10.37,2013-12-17 02:25:00,
2013-12-16 19:30:00,29.8,27.5,30.01,South,180,10.9,11.5,91,0.00,OVC,,0.00,WeatherDisplay:10.37,2013-12-17 02:30:00,
2013-12-16 19:35:00,29.7,27.4,30.01,South,180,8.2,10.4,91,0.00,-SN,,0.00,WeatherDisplay:10.37,2013-12-17 02:35:00,
2013-12-16 19:40:00,29.7,27.4,30.01,South,180,7.3,9.2,91,0.00,-SN,,0.00,WeatherDisplay:10.37,2013-12-17 02:40:00,
2013-12-16 19:45:00,29.7,27.7,30.01,South,180,9.5,11.4,92,0.00,-SN,,0.00,WeatherDisplay:10.37,2013-12-17 02:45:00,
2013-12-16 19:50:00,29.7,27.7,30.01,South,180,6.2,8.1,92,0.00,-SN,,0.00,WeatherDisplay:10.37,2013-12-17 02:50:00,
2013-12-16 19:55:00,29.7,27.7,30.01,South,180,7.5,8.1,92,0.00,-SN,,0.00,WeatherDisplay:10.37,2013-12-17 02:55:00,
2013-12-16 20:00:00,30.0,28.0,30.01,South,180,6.5,10.4,92,0.00,-SN,,0.00,WeatherDisplay:10.37,2013-12-17 03:00:00,
2013-12-16 20:05:00,30.2,28.4,30.02,South,180,5.7,6.9,93,0.00,-SN,,0.00,WeatherDisplay:10.37,2013-12-17 03:05:00,
2013-12-16 20:10:00,30.0,28.5,30.02,South,180,6.5,8.1,94,0.00,-SN,,0.00,WeatherDisplay:10.37,2013-12-17 03:10:00,
2013-12-16 20:15:00,29.8,28.3,30.03,South,180,5.8,6.9,94,0.00,-SN,,0.00,WeatherDisplay:10.37,2013-12-17 03:15:00,
2013-12-16 20:20:00,30.0,28.7,30.03,South,180,6.6,8.1,95,0.00,-SN,,0.00,WeatherDisplay:10.37,2013-12-17 03:20:00,
2013-12-16 20:26:00,29.8,28.8,30.03,South,180,6.3,6.9,96,0.00,-SN,,0.00,WeatherDisplay:10.37,2013-12-17 03:26:00,
2013-12-16 20:31:00,29.8,28.8,30.03,South,180,6.9,13.5,96,0.00,-SN,,0.00,WeatherDisplay:10.37,2013-12-17 03:31:00,
2013-12-16 20:36:00,29.8,28.5,30.03,South,180,12.9,15.0,95,0.00,-SN,,0.00,WeatherDisplay:10.37,2013-12-17 03:36:00,
2013-12-16 20:41:00,29.8,27.5,30.02,South,180,12.0,16.1,91,0.00,-SN,,0.00,WeatherDisplay:10.37,2013-12-17 03:41:00,
2013-12-16 20:46:00,30.0,27.4,30.02,South,180,7.4,9.2,90,0.00,-SN,,0.00,WeatherDisplay:10.37,2013-12-17 03:46:00,
2013-12-16 20:51:00,30.2,27.3,30.02,South,180,9.7,11.4,89,0.00,-SN,,0.00,WeatherDisplay:10.37,2013-12-17 03:51:00,
2013-12-16 20:56:00,30.2,27.1,30.01,South,180,7.6,9.4,88,0.00,OVC,,0.00,WeatherDisplay:10.37,2013-12-17 03:56:00,
2013-12-16 21:01:00,30.2,27.1,30.01,South,180,7.6,9.2,88,0.00,OVC,,0.00,WeatherDisplay:10.37,2013-12-17 04:01:00,
2013-12-16 21:06:00,30.4,27.0,30.02,South,180,7.4,9.2,87,0.00,OVC,,0.00,WeatherDisplay:10.37,2013-12-17 04:06:00,
2013-12-16 21:11:00,30.4,27.0,30.02,South,180,6.9,9.2,87,0.00,OVC,,0.00,WeatherDisplay:10.37,2013-12-17 04:11:00,
2013-12-16 21:16:00,30.4,27.0,30.02,South,180,7.5,9.2,87,0.00,OVC,,0.00,WeatherDisplay:10.37,2013-12-17 04:16:00,
2013-12-16 21:21:00,30.4,27.0,30.02,South,180,7.2,9.2,87,0.00,OVC,,0.00,WeatherDisplay:10.37,2013-12-17 04:21:00,
2013-12-16 21:26:00,30.0,26.6,30.02,South,180,8.7,10.4,87,0.00,OVC,,0.00,WeatherDisplay:10.37,2013-12-17 04:26:00,
2013-12-16 21:31:00,29.8,26.1,30.01,South,180,6.0,8.1,86,0.00,OVC,,0.00,WeatherDisplay:10.37,2013-12-17 04:31:00,
2013-12-16 21:36:00,29.8,25.8,30.01,South,180,7.3,8.1,85,0.00,OVC,,0.00,WeatherDisplay:10.37,2013-12-17 04:36:00,
2013-12-16 21:41:00,29.5,25.5,30.01,South,180,5.6,5.8,85,0.00,OVC,,0.00,WeatherDisplay:10.37,2013-12-17 04:41:00,
2013-12-16 21:46:00,29.3,25.1,30.01,South,180,8.5,10.4,84,0.00,OVC,,0.00,WeatherDisplay:10.37,2013-12-17 04:46:00,
2013-12-16 21:51:00,29.3,24.8,30.01,South,180,6.9,9.2,83,0.00,OVC,,0.00,WeatherDisplay:10.37,2013-12-17 04:51:00,
2013-12-16 21:56:00,29.3,24.5,30.01,South,180,7.8,9.2,82,0.00,OVC,,0.00,WeatherDisplay:10.37,2013-12-17 04:56:00,
2013-12-16 22:01:00,29.1,24.3,30.01,South,180,8.1,9.2,82,0.00,OVC,,0.00,WeatherDisplay:10.37,2013-12-17 05:01:00,
2013-12-16 22:06:00,29.1,24.0,30.01,South,180,9.3,12.7,81,0.00,OVC,,0.00,WeatherDisplay:10.37,2013-12-17 05:06:00,
2013-12-16 22:11:00,29.1,24.0,30.01,South,180,8.0,10.4,81,0.00,BKN,,0.00,WeatherDisplay:10.37,2013-12-17 05:11:00,
2013-12-16 22:16:00,29.1,24.0,30.02,South,180,7.7,9.2,81,0.00,BKN,,0.00,WeatherDisplay:10.37,2013-12-17 05:16:00,
2013-12-16 22:21:00,29.1,24.0,30.02,South,180,6.9,8.3,81,0.00,BKN,,0.00,WeatherDisplay:10.37,2013-12-17 05:21:00,
2013-12-16 22:27:00,28.9,24.1,30.02,South,180,6.6,8.1,82,0.00,BKN,,0.00,WeatherDisplay:10.37,2013-12-17 05:27:00,
2013-12-16 22:32:00,28.8,24.0,30.02,South,180,5.8,6.9,82,0.00,BKN,,0.00,WeatherDisplay:10.37,2013-12-17 05:32:00,
2013-12-16 22:37:00,28.6,23.8,30.02,South,180,5.4,5.8,82,0.00,BKN,,0.00,WeatherDisplay:10.37,2013-12-17 05:37:00,
2013-12-16 22:42:00,28.4,23.6,30.03,South,180,6.6,6.9,82,0.00,BKN,,0.00,WeatherDisplay:10.37,2013-12-17 05:42:00,
2013-12-16 22:47:00,28.2,23.4,30.03,South,180,5.2,5.8,82,0.00,BKN,,0.00,WeatherDisplay:10.37,2013-12-17 05:47:00,
2013-12-16 22:52:00,28.2,23.4,30.03,South,180,7.4,8.1,82,0.00,BKN,,0.00,WeatherDisplay:10.37,2013-12-17 05:52:00,
2013-12-16 22:57:00,28.2,23.4,30.03,South,180,7.3,7.3,82,0.00,BKN,,0.00,WeatherDisplay:10.37,2013-12-17 05:57:00,
2013-12-16 23:02:00,27.9,22.8,30.03,South,180,5.9,8.1,81,0.00,BKN,,0.00,WeatherDisplay:10.37,2013-12-17 06:02:00,
2013-12-16 23:07:00,27.7,22.9,30.03,South,180,5.0,5.8,82,0.00,BKN,,0.00,WeatherDisplay:10.37,2013-12-17 06:07:00,
2013-12-16 23:12:00,27.9,23.1,30.03,South,180,9.0,10.4,82,0.00,BKN,,0.00,WeatherDisplay:10.37,2013-12-17 06:12:00,
2013-12-16 23:17:00,27.9,22.8,30.04,South,180,6.4,9.2,81,0.00,BKN,,0.00,WeatherDisplay:10.37,2013-12-17 06:17:00,
2013-12-16 23:22:00,27.9,22.2,30.04,South,180,6.8,8.1,79,0.00,FEW,,0.00,WeatherDisplay:10.37,2013-12-17 06:22:00,
2013-12-16 23:27:00,27.7,22.0,30.04,South,180,7.9,9.2,79,0.00,FEW,,0.00,WeatherDisplay:10.37,2013-12-17 06:27:00,
2013-12-16 23:32:00,27.5,21.8,30.05,South,180,6.3,9.2,79,0.00,FEW,,0.00,WeatherDisplay:10.37,2013-12-17 06:32:00,
2013-12-16 23:37:00,27.3,21.9,30.05,South,180,6.3,6.9,80,0.00,FEW,,0.00,WeatherDisplay:10.37,2013-12-17 06:37:00,
2013-12-16 23:42:00,27.5,22.1,30.05,South,180,7.5,10.4,80,0.00,FEW,,0.00,WeatherDisplay:10.37,2013-12-17 06:42:00,
2013-12-16 23:47:00,27.5,22.1,30.05,South,180,9.2,10.4,80,0.00,FEW,,0.00,WeatherDisplay:10.37,2013-12-17 06:47:00,
2013-12-16 23:52:00,27.5,22.1,30.05,South,180,9.1,10.4,80,0.00,FEW,,0.00,WeatherDisplay:10.37,2013-12-17 06:52:00,
2013-12-16 23:57:00,27.7,22.0,30.05,South,180,6.9,8.1,79,0.00,FEW,,0.00,WeatherDisplay:10.37,2013-12-17 06:57:00,